Wind_Speed
4 3 3 2 4 5 6 8 6 7 9 9 11 12 13 13 13 14 16 17 17 18 19 19 20 20 21 22 23 23 24 25 25 26 26 27 27 27 27 28 27 28 28 28
5 5 4 3 4 6 6 7 6 7 10 11 11 13 14 12 14 15 17 18 19 20 20 21 20 21 21 22 23 24 25 26 26 27 27 28 28 28 28 28 27 27 28 28
5 5 4 4 5 6 5 5 6 9 11 12 12 13 14 14 15 16 18 19 20 21 21 22 22 23 24 24 24 25 25 26 27 27 27 27 28 28 28 29 29 29 29 28
3 5 5 5 7 6 5 7 7 9 11 11 11 13 14 15 16 17 18 18 20 21 22 23 24 24 24 24 25 25 26 26 26 26 27 27 27 27 28 28 28 28 29 28
3 5 5 6 8 8 7 8 9 10 10 10 11 14 14 15 17 18 17 18 20 22 23 23 23 24 24 24 24 24 25 25 25 25 26 26 27 27 27 27 27 27 27 27
5 5 5 6 7 8 9 9 8 8 8 11 12 14 15 15 17 18 19 19 21 23 24 24 24 24 24 24 24 24 25 25 24 25 25 26 26 26 26 26 26 27 26 26
6 6 7 7 8 9 9 9 9 9 10 10 11 13 15 17 18 19 21 21 22 24 25 25 25 25 25 25 25 24 24 24 24 24 24 25 26 26 26 26 25 26 25 25
4 5 9 10 9 11 9 9 12 12 12 12 13 14 16 17 18 20 22 22 23 24 24 25 25 25 25 25 25 24 24 24 24 24 24 25 25 25 25 25 25 25 25 25
6 7 9 12 12 12 10 9 10 12 11 11 13 15 17 18 20 21 23 23 23 24 24 24 25 25 24 24 23 24 24 24 24 25 25 24 24 25 25 24 24 24 24 25
10 11 10 12 12 11 10 11 11 12 13 13 11 14 19 20 22 23 24 24 24 24 24 24 23 23 23 23 23 24 24 24 25 25 25 25 24 24 24 23 23 22 23 23
12 13 11 11 11 10 11 11 12 12 12 14 14 16 20 21 22 24 24 24 24 24 24 23 22 22 22 22 23 24 24 25 25 26 25 24 24 23 22 23 23 22 23 23
13 13 11 10 11 10 11 11 12 13 13 14 15 16 19 20 22 22 23 23 23 23 23 23 23 23 23 23 23 24 24 25 26 25 24 23 22 22 22 23 22 23 23 23
12 12 11 10 9 10 11 12 12 13 15 15 16 17 19 20 21 22 23 22 23 23 24 23 24 23 24 24 23 24 24 25 24 24 23 22 21 22 22 23 22 22 22 22
12 12 12 11 10 12 12 13 14 14 15 17 17 17 19 20 21 21 21 22 23 23 23 24 23 24 24 23 23 23 24 24 23 22 22 21 21 22 23 22 22 22 22 23
12 12 13 11 11 12 13 14 15 16 16 18 18 19 19 21 22 22 22 23 23 23 22 23 24 24 24 24 24 24 25 24 23 22 21 21 22 22 22 22 22 22 22 22
13 13 12 11 12 13 14 15 15 16 16 17 18 19 20 21 22 23 23 23 23 23 23 24 25 25 24 23 24 24 23 23 23 22 22 22 22 21 21 21 21 22 22 22
15 14 13 12 12 14 15 16 16 16 17 18 19 20 21 22 22 22 23 24 24 24 24 24 24 23 23 23 23 23 23 22 22 22 22 22 21 21 22 22 22 22 22 22
15 15 15 14 15 16 16 16 17 18 18 19 20 21 21 23 23 23 23 23 23 24 24 24 23 23 23 23 23 22 21 21 21 21 21 21 21 22 22 22 22 22 22 22
16 17 16 15 16 16 16 18 19 19 19 20 21 22 23 24 23 23 23 23 23 24 24 25 24 24 23 23 23 22 21 21 21 21 21 21 22 22 22 22 22 22 21 21
18 17 17 17 17 17 17 19 21 21 22 22 23 23 24 24 24 23 24 23 23 23 24 24 24 23 22 22 22 21 21 21 21 21 21 21 21 22 21 21 20 20 20 20
19 19 19 18 18 19 19 21 22 22 23 23 23 23 24 25 25 25 24 23 23 23 24 24 23 22 22 21 21 21 21 21 21 20 20 20 20 20 20 20 19 19 19 19
19 20 20 20 19 20 20 21 22 22 23 23 24 24 25 25 25 24 24 23 23 23 24 24 23 22 21 21 20 20 21 20 19 19 19 19 19 18 18 19 19 18 18 18
20 20 20 21 20 21 22 23 23 23 23 24 25 24 25 25 25 24 23 23 23 23 22 22 22 21 21 20 20 20 20 19 18 19 19 18 19 18 18 18 18 17 17 18
21 21 22 21 21 22 23 23 23 24 25 25 25 25 25 25 24 24 23 23 23 22 22 22 21 21 21 20 19 19 19 19 18 18 18 18 18 17 17 17 16 17 17 17
22 22 23 24 24 23 23 24 25 25 26 26 26 25 24 24 24 24 24 23 23 23 22 22 21 21 20 19 18 18 18 18 18 18 17 17 18 17 16 16 16 16 16 16
23 23 24 24 23 24 25 25 25 26 26 26 26 26 24 24 24 24 25 24 23 23 23 22 21 21 20 18 18 18 18 18 18 17 17 17 17 15 15 15 15 15 15 15
Wind_Direction
10 1 357 306 273 277 284 285 281 284 285 282 281 286 286 294 296 301 302 302 302 300 299 298 296 295 295 296 294 293 292 292 293 295 296 298 299 298 299 298 297 296 294 292
358 352 341 302 278 269 283 291 299 302 292 288 289 294 292 295 299 301 302 305 306 304 302 300 300 299 299 298 297 296 295 293 293 293 294 295 298 298 299 300 299 299 298 296
2 338 321 317 306 297 299 295 292 292 289 290 303 305 303 302 299 302 306 306 308 306 303 302 303 303 302 300 299 297 296 295 295 294 295 296 297 298 298 299 299 301 301 300
335 317 320 314 311 295 294 295 289 289 294 300 300 297 300 297 297 302 304 303 307 309 308 307 307 306 305 304 302 300 299 299 297 296 294 295 296 298 299 299 299 301 302 300
317 308 313 304 295 299 293 295 295 298 300 295 293 287 288 290 296 301 301 303 306 307 308 307 307 307 308 307 306 305 304 302 300 298 296 296 297 299 299 298 299 300 300 300
319 314 302 304 299 302 303 304 311 308 293 282 283 283 287 289 296 301 303 305 308 308 308 307 308 309 310 309 307 306 306 305 303 301 299 298 300 302 302 302 301 300 302 301
334 327 313 312 314 310 308 309 311 305 294 288 293 291 295 295 295 302 305 307 309 308 308 309 310 310 309 309 308 307 306 306 305 303 302 302 302 303 302 301 303 302 304 305
302 298 305 316 316 314 308 307 311 312 305 301 298 289 292 297 305 304 305 306 308 308 307 308 310 310 309 308 308 308 307 307 308 306 304 304 303 302 304 304 304 305 305 305
278 276 298 307 307 307 309 308 302 304 303 300 303 296 294 298 300 303 305 304 305 307 307 309 311 312 312 311 310 309 309 309 309 308 307 305 305 304 303 304 305 305 306 306
289 291 296 302 305 310 308 309 305 312 309 303 302 295 295 300 302 306 304 305 306 309 310 312 312 313 312 310 309 310 310 310 311 309 306 306 305 304 303 304 305 307 309 309
286 286 290 297 305 302 303 307 305 302 307 310 307 297 297 299 303 308 308 307 309 310 311 311 312 312 311 310 311 312 312 312 312 311 309 308 307 307 307 305 305 308 308 307
290 291 296 298 302 304 302 304 307 309 312 313 308 301 303 304 307 310 312 311 312 312 311 313 314 314 314 313 311 311 313 313 313 311 311 312 311 310 309 309 308 307 306 306
295 298 305 305 303 306 304 305 309 310 310 312 311 308 306 306 309 311 313 315 316 315 314 314 314 314 315 314 314 315 315 315 314 312 311 311 311 312 311 309 309 309 308 306
297 299 302 300 297 297 299 303 303 304 305 309 311 310 306 308 312 313 315 317 317 316 315 315 316 317 317 317 316 316 317 316 315 313 313 312 313 314 313 310 309 308 307 306
301 302 303 303 302 297 296 302 306 307 306 308 310 309 307 309 312 314 316 317 317 316 316 317 317 317 318 319 317 316 317 317 315 316 316 315 314 313 312 310 309 309 308 308
300 302 305 306 304 302 301 303 307 312 310 309 311 310 310 311 312 314 316 318 316 316 316 318 318 317 318 319 319 319 320 319 318 318 317 316 315 314 314 313 311 310 309 309
298 301 300 302 303 302 306 309 311 311 312 311 311 312 313 314 315 316 316 316 316 316 316 317 317 317 318 319 320 321 320 321 321 320 318 318 317 317 316 314 312 311 310 309
293 296 295 297 299 298 307 307 308 308 308 310 311 312 313 315 316 315 315 315 316 316 316 317 318 317 317 318 320 322 322 321 321 321 320 320 320 318 316 315 314 313 312 312
291 292 292 294 298 300 301 304 305 307 308 310 312 313 314 314 315 314 313 313 315 316 317 319 318 317 316 317 320 322 323 322 322 323 324 323 323 322 319 318 317 316 315 316
293 293 293 295 296 296 300 302 303 305 306 309 310 312 313 314 315 315 313 313 313 315 316 317 317 317 316 317 320 322 323 325 325 326 327 326 325 325 324 323 320 319 319 320
292 292 292 293 293 295 299 300 302 303 306 309 311 312 313 315 315 315 313 313 314 315 316 316 315 316 316 317 319 321 323 325 326 326 326 327 326 326 326 326 325 326 326 325
289 291 294 295 296 297 298 299 301 303 305 307 309 310 313 314 315 314 313 313 315 316 316 316 316 316 316 317 317 320 322 324 325 327 327 328 328 328 329 330 331 332 332 332
285 287 288 290 292 295 297 298 300 303 305 306 308 311 313 314 315 314 312 315 315 317 317 318 319 318 317 316 316 318 321 322 324 327 328 327 328 329 330 333 335 336 336 336
282 284 285 286 288 292 295 297 298 299 301 304 307 309 311 314 315 315 315 315 317 318 316 317 317 318 318 317 316 318 320 323 323 325 326 327 328 329 331 335 337 339 340 340
279 281 283 285 288 290 291 294 296 298 300 302 304 306 308 310 312 314 315 316 317 318 316 315 315 316 317 317 318 318 320 323 325 327 327 329 331 331 332 336 340 343 344 345
279 280 282 285 288 290 292 294 296 298 300 301 302 304 306 308 311 312 314 316 316 316 316 315 314 314 314 316 318 317 319 320 322 326 328 328 331 331 333 337 342 346 348 350
Height
5851 5853 5853 5853 5854 5854 5854 5854 5854 5854 5852 5851 5851 5849 5847 5844 5845 5844 5842 5842 5840 5839 5837 5836 5835 5833 5831 5830 5829 5828 5827 5826 5824 5823 5821 5819 5817 5814 5812 5809 5807 5805 5803 5801
5853 5854 5854 5854 5853 5853 5853 5853 5852 5853 5852 5850 5849 5848 5846 5843 5844 5842 5841 5840 5838 5836 5834 5832 5831 5829 5827 5825 5824 5823 5821 5820 5819 5817 5815 5813 5811 5809 5807 5804 5802 5799 5797 5794
5855 5856 5854 5854 5854 5853 5852 5852 5852 5852 5851 5849 5848 5846 5844 5843 5841 5840 5839 5837 5835 5833 5830 5829 5827 5824 5823 5821 5819 5818 5816 5815 5813 5811 5809 5808 5805 5803 5801 5799 5797 5794 5791 5789
5856 5856 5854 5854 5854 5853 5852 5852 5851 5850 5849 5848 5848 5845 5843 5841 5838 5838 5836 5834 5832 5830 5827 5825 5822 5820 5818 5816 5814 5812 5811 5809 5807 5805 5803 5802 5800 5798 5795 5793 5791 5788 5785 5783
5855 5855 5855 5854 5854 5852 5851 5850 5849 5848 5847 5846 5846 5844 5840 5838 5836 5835 5833 5831 5829 5827 5824 5822 5819 5816 5814 5811 5809 5807 5805 5803 5801 5799 5797 5795 5794 5791 5789 5787 5785 5782 5779 5776
5855 5854 5854 5853 5852 5851 5850 5849 5847 5846 5846 5845 5844 5842 5838 5835 5834 5832 5829 5827 5826 5823 5820 5818 5815 5812 5809 5807 5804 5802 5800 5797 5795 5793 5791 5789 5787 5785 5783 5781 5778 5776 5773 5770
5855 5855 5853 5852 5851 5850 5849 5848 5846 5845 5843 5842 5841 5839 5836 5832 5831 5830 5827 5824 5823 5819 5816 5813 5810 5807 5805 5802 5799 5797 5794 5792 5789 5787 5785 5783 5781 5779 5777 5774 5772 5769 5767 5764
5855 5855 5852 5851 5850 5848 5847 5846 5845 5843 5842 5840 5838 5836 5834 5830 5827 5826 5824 5821 5818 5815 5812 5809 5806 5803 5800 5797 5794 5792 5789 5786 5784 5782 5779 5777 5775 5773 5770 5768 5766 5763 5760 5757
5853 5853 5851 5849 5848 5847 5845 5844 5843 5841 5840 5839 5837 5834 5829 5827 5826 5823 5820 5817 5815 5812 5809 5805 5802 5798 5795 5792 5789 5786 5784 5781 5779 5776 5774 5771 5769 5766 5764 5762 5760 5757 5754 5752
5851 5850 5850 5848 5846 5845 5844 5842 5841 5839 5837 5836 5835 5832 5827 5824 5822 5819 5816 5814 5811 5808 5805 5801 5798 5794 5791 5788 5785 5782 5779 5776 5774 5771 5768 5765 5763 5761 5759 5757 5754 5751 5749 5746
5848 5848 5847 5846 5844 5843 5841 5840 5838 5836 5834 5833 5831 5831 5824 5822 5819 5816 5813 5810 5807 5804 5800 5797 5793 5790 5787 5784 5781 5778 5775 5772 5768 5765 5762 5759 5757 5755 5753 5751 5748 5746 5743 5741
5845 5845 5843 5843 5841 5840 5839 5837 5836 5834 5832 5830 5828 5828 5821 5818 5816 5813 5809 5806 5802 5799 5796 5792 5789 5786 5783 5780 5777 5773 5770 5767 5763 5760 5757 5754 5752 5750 5748 5745 5743 5740 5738 5736
5843 5842 5841 5840 5840 5838 5836 5834 5833 5831 5829 5827 5825 5825 5819 5816 5813 5809 5805 5802 5798 5795 5791 5788 5785 5781 5778 5775 5772 5769 5765 5762 5758 5755 5752 5750 5748 5745 5742 5740 5737 5735 5733 5730
5841 5840 5839 5838 5836 5835 5834 5832 5831 5829 5827 5824 5821 5820 5816 5812 5809 5805 5802 5798 5795 5791 5787 5784 5780 5777 5774 5770 5767 5764 5761 5757 5754 5750 5748 5745 5743 5740 5738 5735 5732 5730 5727 5725
5838 5838 5836 5834 5833 5832 5831 5829 5828 5826 5823 5821 5818 5816 5812 5808 5805 5802 5799 5795 5792 5788 5784 5781 5777 5773 5770 5766 5763 5759 5756 5752 5749 5746 5743 5741 5738 5736 5733 5730 5728 5725 5722 5720
5835 5835 5833 5832 5831 5829 5828 5826 5825 5822 5820 5818 5815 5812 5808 5805 5802 5799 5795 5792 5788 5785 5781 5777 5773 5769 5766 5762 5759 5755 5751 5748 5745 5742 5739 5736 5733 5731 5728 5725 5723 5720 5717 5715
5832 5831 5831 5829 5828 5826 5825 5823 5821 5819 5817 5815 5812 5809 5805 5802 5799 5795 5792 5788 5784 5781 5777 5773 5769 5765 5762 5759 5755 5751 5747 5744 5741 5738 5735 5732 5729 5726 5723 5720 5718 5715 5712 5710
5830 5828 5827 5826 5825 5823 5823 5820 5818 5816 5813 5811 5808 5805 5801 5798 5795 5791 5787 5783 5780 5777 5773 5769 5765 5762 5758 5754 5751 5747 5744 5740 5737 5733 5730 5727 5724 5721 5718 5715 5712 5710 5707 5704
5826 5825 5823 5822 5820 5819 5818 5815 5813 5812 5809 5807 5804 5801 5797 5794 5791 5787 5783 5780 5776 5773 5769 5765 5761 5757 5753 5750 5747 5743 5740 5737 5733 5729 5726 5723 5720 5717 5714 5710 5707 5705 5702 5699
5822 5821 5820 5818 5817 5816 5815 5811 5808 5808 5805 5802 5799 5796 5793 5790 5787 5784 5779 5776 5772 5769 5765 5761 5757 5753 5749 5746 5743 5740 5736 5733 5729 5726 5723 5719 5716 5713 5709 5706 5703 5700 5697 5694
5818 5816 5815 5814 5812 5811 5810 5807 5805 5804 5802 5798 5794 5791 5788 5785 5782 5778 5774 5771 5768 5765 5761 5757 5753 5749 5746 5743 5739 5736 5733 5730 5726 5723 5719 5716 5712 5709 5706 5702 5699 5696 5693 5690
5814 5812 5811 5809 5808 5809 5805 5803 5801 5799 5796 5793 5789 5787 5784 5780 5777 5773 5770 5767 5764 5760 5757 5753 5749 5746 5742 5739 5736 5733 5730 5727 5723 5720 5716 5713 5709 5706 5702 5699 5696 5693 5690 5687
5809 5808 5807 5806 5805 5802 5800 5798 5795 5793 5790 5788 5785 5782 5779 5775 5772 5769 5766 5763 5759 5756 5752 5749 5746 5742 5739 5736 5733 5730 5727 5723 5720 5717 5714 5710 5707 5703 5700 5697 5694 5691 5688 5684
5804 5802 5801 5800 5799 5797 5795 5792 5790 5788 5785 5782 5780 5777 5774 5770 5767 5764 5761 5758 5755 5752 5748 5745 5742 5739 5736 5733 5730 5726 5723 5720 5717 5714 5711 5708 5704 5701 5698 5695 5692 5688 5685 5682
5798 5797 5795 5794 5793 5791 5789 5787 5784 5782 5779 5777 5774 5772 5769 5766 5763 5760 5757 5754 5751 5747 5744 5741 5738 5735 5732 5729 5726 5723 5720 5717 5714 5711 5708 5704 5701 5699 5696 5693 5690 5686 5683 5680
5792 5791 5789 5788 5787 5785 5783 5781 5778 5776 5773 5771 5768 5766 5763 5760 5757 5755 5752 5749 5746 5743 5740 5737 5734 5731 5729 5726 5723 5720 5718 5714 5711 5708 5705 5702 5699 5696 5694 5691 5688 5685 5682 5679